Regional Weather Roundup
Issued by NWS Bismarck, ND

Home | Current Version | Previous Version | Text Only | Print | Product List | Glossary On
Versions: 1 2 3 4 5 6 7 8 9 10 11 12 13 14 15 16 17 18 19 20 21 22 23 24 25 26 27 28 29 30 31 32 33 34 35 36 37 38 39 40 41 42 43 44 45 46 47 48 49 50
000
ASUS43 KBIS 302110
RWRBIS

NWR BROADCAST TEXT
NATIONAL WEATHER SERVICE BISMARCK ND
400 PM CDT WED JUL 30 2014

NOTE: "FAIR" INDICATES FEW OR NO CLOUDS BELOW 12,000 FEET WITH NO
SIGNIFICANT WEATHER AND/OR OBSTRUCTIONS TO VISIBILITY.


CITY           SKY/WX    TMP DP  RH WIND       PRES   REMARKS
WILLISTON      SUNNY     84  47  27 NE10      30.15F
MINOT          SUNNY     79  51  37 N6        30.13F
MINOT AFB      SUNNY     79  57  46 NW8       30.13F
BISMARCK       PTSUNNY   81  55  40 SE3       30.13S
DICKINSON      MOSUNNY   82  52  35 N7        30.15F
GARRISON         N/A     77  58  51 N5        30.14F
HETTINGER ARPT MOSUNNY   81  51  35 NE10      30.17F
JAMESTOWN      SUNNY     79  50  36 W7        30.12F
CARRINGTON     FAIR      75  55  50 N6        30.14F
CROSBY         FAIR      77  54  44 N7        30.16F
HARVEY         FAIR      77  55  47 CALM      30.13F
HAZEN          MOCLDY    81  57  44 NW7       30.15S
LINTON         MOCLDY    81  59  47 N8        30.13S
MANDAN         CLOUDY    77  55  47 NE3       30.15S
RUGBY          FAIR      77  63  61 W8        30.12F
STANLEY        FAIR      77  54  44 N8        30.16F
TIOGA          FAIR      77  50  38 N8        30.20S
WATFORD CITY   FAIR      82  48  30 N12       30.14F
$$

CITY           SKY/WX    TMP DP  RH WIND       PRES   REMARKS
GRAND FORKS    MOSUNNY   81  58  45 N7        30.06F
GRAND FORKS AF MOSUNNY   80  56  43 N12       30.08F
DEVILS LAKE    MOSUNNY   79  55  44 NW10      30.10F
FARGO          MOSUNNY   82  53  36 NW10      30.08S
CANDO          FAIR      77  57  50 N9        30.12F
CAVALIER       FAIR      81  52  36 NW8       30.07F
GRAFTON        FAIR      81  48  32 N8        30.07S
GWINNER        PTCLDY    81  54  39 W5        30.12F
LANGDON        FAIR      81  52  36 NW10      30.11S
ROLLA            N/A     75  54  46 NW10      30.14F
WALHALLA       FAIR      81  54  39 NE6         N/A
$$

CITY           SKY/WX    TMP DP  RH WIND       PRES   REMARKS
ABERDEEN       MOSUNNY   80  54  40 N7        30.11S
MOBRIDGE       MOSUNNY   81  57  43 NE8       30.09F
BUFFALO          N/A     83  49  30 NE14      30.12S
RAPID CITY     MOSUNNY   85  42  22 NW12      30.17F
GLASGOW        SUNNY     91  45  20 S10       30.11F
SIDNEY         SUNNY     84  55  37 E10       30.16F
WOLF POINT     SUNNY     89  50  26 VRB3      30.13F
GLENDIVE       SUNNY     84  52  32 E8        30.17S
MILES CITY     SUNNY     89  40  17 NE8       30.16F
BAKER          SUNNY     87  48  25 NE13G20   30.19S
$$

CITY           SKY/WX    TMP DP  RH WIND       PRES   REMARKS
BILLINGS       MOSUNNY   88  39  17 SE15G21   30.19F
GREAT FALLS    PTSUNNY   92  38  15 S9        30.11F
REGINA         LGT RAIN  75  61  60 SW2       30.16R
ESTEVAN        MOSUNNY   77  57  50 N7        30.16F
$$



USA.gov is the U.S. government's official web portal to all federal, state and local government web resources and services.